Location: St Paul
(33.9360°N, 83.4200°W)
Time: 08:42:28
(UTC-04:00)

Meteor 2-16 Rocket - Pass Details

Date: 06 October 2017
Orbit: 942 x 956 km, 82.6° (Epoch: 19 October)

Event Time Altitude Azimuth Distance (km) Brightness Sun altitude
Rises 20:48:12 0° 187° (S) 3,590 7.5 -21.0°
Reaches altitude 10° 20:50:40 10° 188° (S) 2,649 6.8 -21.5°
Maximum altitude 20:56:44 83° 276° (W) 954 4.4 -22.7°
Drops below altitude 10° 21:02:51 10° 5° (N) 2,670 6.8 -24.0°
Sets 21:05:21 0° 6° (N) 3,621 7.5 -24.5°
